Symphonie 2 Rocket - Orbit

View from above orbital plane
View from above orbital plane
View from above satellite
View from above satellite

Ground track
Ground track

The orbit data is extracted from the following two-line orbital elements,

1 08133U 75077B   13143.62706186  .00200317  92960-6  85823-3 0   747
2 08133 025.2934 229.0276 0061648 302.5585 169.6012 15.80495905950288
Epoch (UTC): 23 May 2013 15:02:58
Eccentricity: 0.0061648
inclination: 25.2934°
perigee height: 287 km
apogee height: 370 km
right ascension of ascending node: 229.0276°
argument of perigee: 302.5585°
revolutions per day: 15.80495905
mean anomaly at epoch: 169.6012°
orbit number at epoch: 95028

The dashed part of the orbit path shows where the satellite is in the earth's shadow,  

Developed and maintained by Chris Peat, Heavens-Above GmbH. Please read the updated FAQ before sending e-mail. Imprint. DLR